Theta_e
285 285 284 284 285 285 286 286 286 286 286 286 286 286 287 287 288 289 289 290 289 290 290 292 292 293 294 297 297 298 300 303 301 285 287 288 289 293 295 299 301 301 302
284 283 283 284 284 284 284 285 285 284 285 284 285 285 286 286 287 287 287 288 289 289 290 291 291 293 293 295 297 297 300 303 301 285 286 289 290 292 293 293 295 297 298
282 282 283 283 282 283 284 284 284 284 284 284 285 284 284 285 285 285 286 286 287 288 290 290 291 292 292 293 293 295 299 300 300 288 286 290 288 290 289 290 291 293 295
281 281 281 282 282 283 284 284 284 284 283 283 284 284 284 284 284 284 285 285 285 286 288 289 290 291 292 293 294 295 298 296 299 291 288 287 287 287 290 288 287 288 286
280 280 280 282 283 283 283 284 284 283 283 283 283 283 283 283 284 284 285 285 285 285 286 287 289 290 291 293 294 296 297 292 290 289 286 286 284 284 286 286 284 283 284
279 280 281 283 283 283 282 283 283 283 282 282 282 281 281 283 286 288 286 284 283 284 284 285 286 287 289 292 293 294 297 291 289 287 286 285 285 287 285 284 282 279 275
280 280 281 282 282 282 282 282 282 282 282 280 280 281 279 281 287 286 285 283 281 281 284 284 284 286 288 290 292 293 293 295 293 291 287 287 286 286 285 282 282 281 278
280 281 281 281 281 282 282 281 281 282 280 280 280 281 279 280 286 285 283 281 281 281 283 285 285 285 287 288 288 287 288 290 291 291 290 289 288 286 286 285 280 278 278
281 281 279 280 281 281 281 281 280 279 280 281 282 282 280 279 284 284 281 280 280 280 282 284 286 286 288 289 286 287 286 286 292 292 291 290 288 288 284 279 277 275 273
281 279 277 281 281 281 281 281 278 276 280 282 282 282 281 279 283 283 280 278 277 280 281 281 286 286 288 290 287 284 282 283 284 284 284 284 283 283 284 282 280 276 273
280 276 279 282 282 282 282 277 277 277 279 281 281 282 281 280 280 284 283 277 276 276 278 281 282 286 288 287 285 282 281 281 281 280 279 278 277 277 277 280 281 280 276
279 273 279 281 282 283 282 279 278 278 278 278 278 279 280 280 281 282 283 282 280 276 275 276 281 285 284 284 282 283 282 280 278 276 274 272 271 270 271 271 272 273 275
275 270 279 281 282 283 282 281 281 280 277 276 277 277 278 279 280 282 281 281 281 277 278 279 279 278 278 279 280 280 276 275 273 270 269 268 268 269 270 269 269 269 269
275 269 278 280 281 282 283 282 281 280 279 276 276 276 277 278 279 280 279 278 278 277 277 277 278 278 277 275 273 273 272 272 271 269 268 269 270 269 268 269 268 267 266
277 274 277 279 280 281 282 281 281 282 282 272 271 274 275 276 279 282 280 278 277 277 275 274 273 272 271 271 271 271 271 271 269 269 269 268 268 267 267 268 267 267 265
279 276 277 278 280 280 280 280 284 284 284 284 283 280 277 282 282 282 282 281 280 278 273 271 270 270 269 269 269 269 269 269 269 269 268 268 267 266 266 266 266 265 263
280 279 276 276 278 279 280 279 278 275 282 283 284 283 283 282 282 281 280 279 279 275 270 270 269 269 268 268 267 267 266 267 269 268 267 266 266 265 265 264 264 263 262
281 280 278 277 277 278 279 279 279 278 276 269 278 281 283 282 280 280 279 275 270 270 268 267 266 267 267 266 266 266 266 266 266 266 265 265 265 264 263 262 262 260 260
279 279 278 279 277 276 278 278 278 277 277 275 268 275 273 281 279 277 274 265 262 264 263 264 264 264 265 265 265 265 265 265 265 264 263 263 263 263 261 261 260 260 260
278 281 281 278 277 274 274 278 278 277 277 278 275 266 265 269 266 260 260 259 261 259 260 262 261 261 262 262 263 263 263 263 262 262 261 261 261 262 260 259 259 258 257
279 280 279 276 275 275 274 276 276 276 276 277 275 265 277 268 271 259 258 257 257 257 258 259 257 259 259 261 261 261 261 260 260 260 260 259 259 259 259 259 257 256 256
280 279 278 277 272 270 270 275 275 274 275 275 274 272 279 275 271 259 258 257 256 256 257 260 258 257 257 260 260 260 259 258 257 258 258 257 257 256 256 256 255 255 254
280 280 280 277 273 271 268 269 269 268 268 268 264 266 270 271 273 262 260 258 257 256 256 259 260 258 254 258 258 261 261 260 260 260 258 257 257 256 256 255 254 253 250
280 281 279 278 273 272 271 269 269 268 267 266 265 264 264 271 274 271 263 259 257 255 257 258 259 260 258 257 257 256 257 259 259 259 258 258 256 255 255 254 253 251 252
279 280 279 275 274 273 271 270 269 268 267 267 266 265 264 263 262 263 263 262 261 260 259 258 258 259 259 258 257 257 259 261 258 258 257 256 256 254 254 254 253 250 247
276 275 275 273 274 274 273 271 270 269 269 268 267 266 266 266 266 266 263 263 264 263 262 261 260 260 259 259 259 261 262 262 258 258 258 257 256 254 254 252 251 252 248
Wind_Speed
6 7 8 8 10 10 11 12 14 16 16 16 19 18 18 19 18 18 19 19 19 17 19 16 17 16 13 12 12 12 14 13 10 1 2 3 1 10 9 13 13 15 14
6 7 8 9 9 10 11 13 13 15 17 18 19 18 19 19 18 18 19 19 20 19 19 19 19 12 15 16 13 11 12 11 6 8 2 5 4 6 15 16 11 12 15
6 6 8 8 10 11 13 14 16 16 17 17 17 17 18 19 19 18 18 19 19 20 18 19 18 15 15 13 16 15 13 9 4 8 6 5 4 8 13 12 13 15 12
6 6 7 8 10 12 13 14 14 14 16 17 17 17 18 18 19 19 18 18 19 18 19 19 17 18 17 15 17 18 12 5 7 10 9 12 10 7 11 19 12 10 13
6 5 7 9 11 12 13 14 13 14 15 16 16 16 18 18 14 17 17 16 17 18 18 18 17 19 20 16 12 9 10 5 7 9 11 13 13 13 16 11 18 14 12
5 5 6 9 11 11 14 13 13 14 15 15 15 17 21 16 30 25 18 12 14 17 18 17 16 19 18 20 21 14 6 11 11 11 12 17 19 13 14 17 20 18 10
4 5 6 9 10 11 12 13 13 14 14 13 15 16 20 22 29 26 25 11 11 11 15 15 16 14 13 12 18 15 7 17 22 17 20 19 20 19 20 20 18 15 13
4 5 8 8 8 11 12 12 13 10 11 12 15 16 17 17 34 30 28 15 11 11 7 13 15 15 13 9 9 6 5 9 15 12 18 20 19 21 17 17 21 20 15
3 5 5 7 7 11 11 12 11 9 10 12 14 16 15 16 34 34 25 14 14 14 12 2 11 13 16 19 9 10 9 6 13 16 17 19 24 25 24 21 17 20 14
1 4 4 5 6 9 9 9 9 6 8 10 14 15 18 18 28 35 27 13 17 13 16 18 12 12 17 18 14 17 16 13 21 22 20 24 24 23 21 13 17 19 14
1 2 4 3 4 6 8 4 6 7 6 10 12 14 17 18 20 33 34 16 14 15 15 16 19 38 30 28 23 15 21 21 29 22 18 14 14 14 11 11 11 13 9
2 3 2 2 2 4 6 6 6 10 9 10 11 12 12 17 27 28 31 29 27 15 16 15 21 39 40 38 27 33 33 25 16 16 15 13 13 12 13 14 16 14 11
3 4 2 1 2 3 5 7 8 9 8 9 9 9 11 12 13 29 30 28 25 14 14 27 35 36 36 30 32 28 19 13 14 15 14 12 11 12 14 15 17 17 18
5 5 3 2 1 2 3 5 6 8 8 7 8 9 10 10 12 13 12 13 20 16 19 16 24 28 33 25 20 19 13 12 13 14 13 11 11 11 12 10 12 11 12
6 5 4 3 2 1 2 2 4 4 5 1 1 3 7 10 11 18 15 11 10 15 11 13 13 13 13 13 14 14 12 12 13 11 12 11 12 11 10 8 6 7 10
8 6 6 4 3 3 3 0 4 6 9 10 10 8 2 13 18 19 22 21 21 19 10 11 11 11 12 10 10 11 10 12 10 9 10 10 11 10 9 8 8 10 11
11 8 6 6 4 4 5 4 2 4 4 7 8 10 12 13 17 16 15 19 22 14 11 9 9 9 9 9 9 10 10 8 8 9 10 9 8 9 10 9 8 10 10
12 12 8 7 6 5 5 5 4 3 2 3 4 6 9 12 15 17 12 10 8 11 8 8 7 7 7 8 7 7 7 7 8 8 8 7 8 8 9 9 8 10 9
11 8 8 6 6 6 4 4 3 2 2 3 4 4 5 9 10 14 16 5 3 4 3 5 4 5 5 5 6 6 6 6 6 7 6 7 7 8 8 8 9 10 10
10 13 12 8 6 6 5 6 5 4 4 3 4 3 3 5 5 4 4 3 4 3 2 4 3 4 4 4 5 6 6 6 6 6 6 6 6 7 8 9 7 8 6
9 10 13 7 7 7 7 8 7 5 6 5 4 2 3 2 1 1 1 2 3 3 3 3 3 3 3 4 4 5 5 5 5 6 6 5 5 7 6 7 8 7 8
10 10 10 10 7 6 7 7 7 7 7 6 4 2 7 3 2 2 2 2 3 3 3 5 4 3 2 4 5 5 5 6 4 5 6 5 6 6 6 7 8 7 7
10 11 10 9 8 6 5 6 6 5 6 5 4 4 4 4 4 4 4 4 4 4 4 4 5 4 3 4 3 6 8 8 8 8 8 7 7 7 7 8 8 7 5
10 11 10 9 8 8 7 6 6 5 4 4 5 4 4 5 6 5 5 4 4 3 3 4 4 6 6 5 4 3 3 5 6 7 10 9 8 7 7 7 6 7 7
9 9 9 9 9 8 7 7 7 7 6 5 4 4 3 3 3 4 4 4 4 5 5 5 4 7 8 9 7 7 7 10 8 9 7 8 9 9 7 7 7 5 4
8 8 7 6 6 7 7 7 7 6 7 6 5 5 4 4 4 3 3 5 5 4 5 4 5 7 8 7 8 9 10 11 10 10 8 9 9 7 7 8 9 6 6
Wind_Direction
297 298 307 301 305 311 314 312 312 312 307 303 303 301 295 290 285 278 273 263 249 251 251 242 238 236 248 246 235 241 246 241 238 348 82 108 123 139 119 114 120 114 120
286 298 304 307 313 318 316 314 314 309 310 308 305 297 294 291 288 281 275 270 267 252 244 240 240 232 231 246 253 249 253 232 230 145 141 142 138 158 121 114 113 111 113
297 298 310 317 320 316 318 318 318 315 314 305 301 302 303 296 289 280 274 269 265 260 250 242 238 237 231 230 235 243 249 248 227 149 128 141 106 149 112 101 109 109 98
294 298 313 316 320 321 320 320 315 317 312 312 309 306 303 299 294 285 277 269 263 257 253 244 239 232 232 227 229 223 232 233 248 162 138 147 144 157 127 127 100 89 104
305 314 317 317 324 321 323 318 318 321 317 312 312 315 315 311 302 292 279 270 260 252 246 244 239 233 230 226 238 234 201 143 155 162 146 155 152 156 147 128 114 113 92
312 316 322 328 329 322 328 324 326 323 323 318 327 331 331 316 309 307 304 294 274 261 247 232 232 232 224 221 241 261 183 158 161 161 165 165 163 153 143 142 130 129 115
321 328 328 334 329 326 326 326 327 330 327 332 341 338 332 324 340 347 341 307 296 281 244 222 223 228 217 210 218 219 216 178 177 180 167 175 164 159 148 142 138 124 127
348 348 340 333 335 331 334 334 333 331 332 341 344 332 331 332 354 3 354 335 326 331 321 217 211 215 210 188 174 181 202 198 191 189 177 172 162 150 146 133 123 111 105
4 342 314 329 342 338 338 338 326 323 341 354 344 331 338 346 4 14 3 350 352 355 1 290 200 203 200 198 181 181 132 92 137 113 113 122 133 140 135 125 120 123 120
337 311 302 326 348 334 327 332 317 299 345 357 358 353 353 350 360 20 19 3 1 7 28 32 58 186 181 173 147 133 117 120 111 104 101 99 102 114 110 95 131 128 126
225 289 298 333 347 312 314 304 312 308 359 7 7 2 1 2 359 18 28 17 15 16 23 45 50 66 92 99 101 103 109 114 107 103 103 97 89 82 77 84 99 126 128
201 254 307 339 344 315 334 321 351 347 357 6 360 2 356 356 2 13 22 35 31 29 37 36 54 73 78 81 85 95 102 100 96 97 93 86 85 84 77 76 74 67 65
181 217 188 336 17 338 5 6 7 9 4 1 7 357 355 355 357 2 7 21 35 48 49 56 60 61 64 65 73 76 75 80 90 91 93 90 85 89 94 81 77 82 70
185 218 176 172 48 10 31 40 22 16 17 12 12 4 352 355 3 4 4 5 15 31 39 48 58 62 63 63 61 59 62 72 84 89 90 89 87 79 81 96 100 94 84
185 198 199 176 196 219 49 60 42 27 33 44 355 351 353 1 6 16 25 14 18 24 39 45 45 51 57 56 56 55 59 68 75 80 86 90 90 92 89 90 84 87 100
188 189 202 181 186 199 219 264 62 42 56 60 38 45 322 12 8 21 28 38 45 41 41 47 53 55 57 55 62 69 61 71 79 90 88 88 95 101 98 88 90 95 104
196 186 181 192 190 195 212 231 225 309 346 33 47 37 37 27 15 24 37 45 40 50 56 48 51 48 52 56 60 58 59 52 64 73 82 85 92 92 98 96 96 99 89
193 194 185 188 189 195 207 220 233 261 309 307 336 43 33 35 35 32 30 49 45 30 40 44 47 49 55 66 67 72 70 64 65 73 75 75 81 90 91 84 86 98 97
183 184 186 187 177 198 189 206 200 238 255 279 330 351 5 16 45 47 58 72 88 61 51 75 58 62 71 82 86 82 85 86 88 89 83 89 91 101 98 100 102 107 110
190 192 188 185 179 184 196 198 209 208 243 230 264 267 336 30 28 7 29 74 81 77 68 81 65 79 92 86 89 97 99 97 99 97 96 98 100 111 113 112 109 110 95
187 184 184 179 180 184 195 200 204 203 223 234 242 217 189 114 145 162 150 125 137 136 132 116 108 104 86 91 91 93 99 101 101 106 101 96 101 105 99 103 104 98 102
185 184 183 188 180 167 188 186 196 195 201 212 211 210 215 156 197 200 180 187 194 176 160 142 137 135 149 140 137 126 120 121 116 119 112 101 103 103 101 103 105 110 120
186 185 180 184 185 168 167 186 183 198 200 201 188 188 178 178 177 202 200 181 178 175 169 152 147 157 168 155 169 157 154 165 161 142 131 128 128 125 127 130 131 122 124
187 190 182 182 180 174 178 186 195 201 199 187 188 204 199 200 197 195 196 179 166 177 170 164 170 163 160 161 152 139 124 133 140 141 138 139 128 125 124 121 120 117 120
183 181 176 175 173 181 176 178 184 188 188 188 203 207 207 192 214 204 187 176 166 160 177 179 174 176 175 167 164 153 151 141 133 129 115 116 127 128 122 124 129 109 105
169 164 167 158 171 176 182 182 192 191 199 192 186 189 195 204 213 207 183 170 173 179 170 171 186 184 174 172 164 149 143 141 138 131 129 132 135 128 127 125 123 122 123